Location: Wildlife_Club
(35.6000°N, 81.4330°W)
Time: 17:54:39
(UTC-04:00)

A-11 Canister half - Pass Details

Date: 19 June 2019
Orbit: 1526 x 1683 km, 47.3° (Epoch: 15 July)

Event Time Altitude Azimuth Distance (km) Brightness Sun altitude
Exits shadow 03:44:55 11° 161° (SSE) 3,715 10.7 -22.6°
Maximum altitude 03:50:24 18° 125° (SE) 3,153 10.6 -21.9°
Drops below altitude 10° 03:56:06 10° 86° (E) 3,719 11.5 -21.2°
Sets 04:00:24 0° 69° (ENE) 4,689 12.5 -20.7°
